Location: Calvatone
(45.1167°N, 10.4333°E)
Time: 08:00:58
(UTC+00:00)

FENGYUN 1C DEB - Visible Passes

Search period start: 21 May 2024 00:00
Search period end: 31 May 2024 00:00
Orbit: 754 x 1105 km, 98.2° (Epoch: 20 May)

Date Brightness Start Highest point End Pass type
(mag) Time Alt. Az. Time Alt. Az. Time Alt. Az.
23 May ? 01:59:03 10° ENE 02:01:22 12° E 02:03:37 10° ESE visible
24 May ? 02:09:25 10° NE 02:12:58 15° E 02:16:21 10° ESE visible
25 May ? 02:20:12 10° NE 02:24:32 19° E 02:28:38 10° SE visible
26 May ? 02:31:09 10° NE 02:36:04 23° E 02:40:41 10° SE visible
27 May ? 02:42:13 10° NNE 02:47:35 28° E 02:52:33 10° SSE visible
28 May ? 02:53:21 10° NNE 02:59:03 34° E 03:04:18 10° SSE visible
